Location: Saluda
(35.2377°N, 82.3468°W)
Time: 13:56:56
(UTC+00:00)

SR - Pass Details

Date: 08 October 2022
Orbit: 577 x 875 km, 66.7° (Epoch: 28 November)

Event Time Altitude Azimuth Distance (km) Brightness Sun altitude
Rises 02:28:22 0° 258° (WSW) 3,445 ? -41.4°
Reaches altitude 10° 02:32:08 10° 282° (WNW) 2,524 ? -42.0°
Maximum altitude 02:35:13 14° 314° (NW) 2,224 ? -42.6°
Drops below altitude 10° 02:38:19 10° 346° (NNW) 2,517 ? -43.2°
Enters shadow 02:38:26 10° 347° (NNW) 2,540 ? -43.2°
Sets 02:42:05 0° 10° (N) 3,428 - -43.8°
